Location: Newark
(34.9500°N, 139.9667°E)
Time: 05:49:55
(UTC+00:00)

Transit 2A - Pass Details

Date: 10 December 2019
Orbit: 601 x 957 km, 66.7° (Epoch: 17 January)

Event Time Altitude Azimuth Distance (km) Brightness Sun altitude
Rises 21:49:31 0° 227° (SW) 3,144 9.0 1.4°
Reaches altitude 10° 21:52:10 10° 236° (WSW) 2,166 8.1 1.8°
Maximum altitude 21:56:34 34° 301° (WNW) 1,097 6.4 2.6°
Drops below altitude 10° 22:00:42 10° 7° (N) 2,017 8.0 3.4°
Sets 22:03:05 0° 17° (NNE) 2,896 8.8 3.8°
